Regional Weather Roundup
Issued by NWS Kansas City/Pleasant Hill, MO

Home | Current Version | Previous Version | Graphics & Text | Print | Product List | Glossary Off
Versions: 1 2 3 4 5 6 7 8 9 10 11 12 13 14 15 16 17 18 19 20 21 22 23 24 25 26 27 28 29 30 31 32 33 34 35 36 37 38 39 40 41 42 43 44 45 46 47 48 49 50

000
ASUS43 KEAX 250910
RWREAX

WEATHER ROUNDUP FOR EASTERN KANSAS AND NORTHWEST MISSOURI
NATIONAL WEATHER SERVICE KANSAS CITY/PLEASANT HILL MO
400 AM CDT SAT APR 25 2015

KSZ040-057-103>105-MOZ028-029-037-043-251000-
...KANSAS CITY METROPOLITAN AREA...

CITY           SKY/WX    TMP DP  RH WIND       PRES   REMARKS
K.C. INTL      LGT RAIN  57  55  93 S14       29.45F
K.C. DOWNTOWN  CLOUDY    59  54  83 S16G23    29.47R
LEES SUMMIT    CLOUDY    56  54  93 S8        29.49S
OLATHE - IXD   LGT RAIN  56  54  93 SE9       29.45F
OLATHE - OJC   LGT RAIN  56  55  97 SE7       29.46S
LAWRENCE       LGT RAIN  56  53  90 SE12      29.41F

$$

MOZ001>008-011>017-020>025-030>033-038>040-044>046-053-054-251000-
...NORTHERN AND CENTRAL MISSOURI...

CITY           SKY/WX    TMP DP  RH WIND       PRES   REMARKS
ST. JOSEPH     RAIN      58  55  90 E15       29.40F FOG
MOSBY          CLOUDY    57  54  88 SE10      29.47S
WARRENSBURG    CLOUDY    55  52  88 SE8       29.48S
WHITEMAN AFB   MOCLDY    57  55  94 SE7       29.47F
CLINTON        MOCLDY    57  57 100 SE12      29.49F
SEDALIA        CLOUDY    58  54  86 SE14      29.50F
WARSAW         NOT AVBL
MARSHALL       CLOUDY    57  55  94 SE9G17    29.49F
CHILLICOTHE      N/A     55  53  93 E7        29.50F
MOBERLY        CLOUDY    55  50  82 SE10      29.54F
KIRKSVILLE     CLOUDY    53  50  89 E12       29.54F

$$

MOZ041-047>049-056>058-063>065-088>090-097-251000-
...EASTERN AND SOUTHERN MISSOURI...

CITY           SKY/WX    TMP DP  RH WIND       PRES   REMARKS
ST. LOUIS INTL CLOUDY    56  48  74 SE10      29.63F
SPIRIT OF STL  CLOUDY    54  48  80 E5        29.61F
COLUMBIA       LGT RAIN  54  53  97 SE10G17   29.54F
JEFFERSON CITY CLOUDY    56  52  86 E9        29.55F
MEXICO         CLOUDY   N/A N/A N/A SE8       29.57F
HANNIBAL       LGT RAIN  54  48  82 CALM      29.59F
ROLLA          CLOUDY    54  53  97 SE14      29.55F
LEBANON        CLOUDY    59  57  94 S16       29.54F
OSAGE BEACH    CLOUDY    57  54  88 SE6       29.53F
SPRINGFIELD    MOCLDY    59  57  93 S18       29.51F
BRANSON        MOCLDY    57  55  94 CALM      29.56F
NEVADA         PTCLDY    55  55 100 S9        29.47F
JOPLIN         PTCLDY    61  57  87 S16       29.48F
WEST PLAINS    FOG       54  53  97 SE5       29.60F VSB 1/2

$$

IAZ060-094-KSZ022-034>040-054-083-096-NEZ052-066-093-251000-
...KANSAS...SOUTHEAST NEBRASKA AND IOWA...

CITY           SKY/WX    TMP DP  RH WIND       PRES   REMARKS
TOPEKA         CLOUDY    59  55  87 SE6       29.39F
MANHATTAN      LGT RAIN  56  55  97 W7        29.40R
EMPORIA        LGT RAIN  55  54  96 SE9       29.40F
CHANUTE        CLOUDY    62  59  90 S14G24    29.44F
WICHITA        LGT RAIN  57  55  93 W22G30    29.44R
OMAHA          TSTM      54  52  93 E22G29    29.45F
LINCOLN        LGT RAIN  55  54  96 NE13      29.44R FOG
FALLS CITY     LGT RAIN  57  54  89 SE12      29.39R
LAMONI         CLOUDY    56  50  80 E8        29.48F
DES MOINES     CLOUDY    50  43  77 E15G23    29.56S THUNDER

$$



USA.gov is the U.S. government's official web portal to all federal, state and local government web resources and services.